When you browse on this site, cookies collect data to enhance your experience and personalize the content and advertising you see.
Visit our Privacy Policy to learn more. By continuing to use the site, you agree to this use of cookies and data.
  • In Sweden
  • List of Countries
  • For 7 days
  • Water Temperature
  • Weather Map
  • Weather Widgets
  • user-avatar
    Login

    Hourly Weather Bobo-Dioulasso

    Today, 10 April, Friday

    Time Temperature Precipitation Wind Pressure Humidity
    00:00 +34°C° 0 mm 2 mps 721 mmHg 32%
    01:00 +32°C° 0 mm 2 mps 721 mmHg 34%
    02:00 +32°C° 0 mm 1 mps 720 mmHg 36%
    03:00 +31°C° 0 mm 1 mps 720 mmHg 38%
    04:00 +31°C° 0 mm 2 mps 720 mmHg 41%
    05:00 +30°C° 0 mm 2 mps 721 mmHg 45%
    06:00 +29°C° 0 mm 2 mps 721 mmHg 49%
    07:00 +31°C° 0 mm 3 mps 722 mmHg 45%
    08:00 +34°C° 0 mm 3 mps 722 mmHg 41%
    09:00 +36°C° 0 mm 3 mps 723 mmHg 38%
    10:00 +37°C° 0 mm 3 mps 723 mmHg 32%
    11:00 +39°C° 0 mm 2 mps 723 mmHg 27%
    12:00 +41°C° 0 mm 2 mps 722 mmHg 22%
    13:00 +42°C° 0 mm 2 mps 721 mmHg 21%
    14:00 +42°C° 0 mm 2 mps 721 mmHg 20%
    15:00 +42°C° 0 mm 2 mps 720 mmHg 18%
    16:00 +41°C° 0 mm 2 mps 720 mmHg 22%
    17:00 +39°C° 0 mm 3 mps 720 mmHg 26%
    18:00 +38°C° 0 mm 4 mps 720 mmHg 30%
    19:00 +37°C° 0 mm 3 mps 721 mmHg 33%
    20:00 +36°C° 0 mm 3 mps 721 mmHg 35%
    21:00 +35°C° 0 mm 3 mps 722 mmHg 38%
    22:00 +34°C° 0 mm 2 mps 722 mmHg 41%
    23:00 +32°C° 0 mm 2 mps 722 mmHg 44%

    Tomorrow, 11 April, Saturday

    Time Temperature Precipitation Wind Pressure Humidity
    00:00 +32°C° 0 mm 2 mps 721 mmHg 46%
    01:00 +31°C° 0 mm 2 mps 721 mmHg 48%
    02:00 +31°C° 0 mm 2 mps 721 mmHg 50%
    03:00 +31°C° 0 mm 2 mps 721 mmHg 52%
    04:00 +30°C° 0 mm 2 mps 721 mmHg 55%
    05:00 +30°C° 0 mm 2 mps 721 mmHg 59%
    06:00 +29°C° 0 mm 2 mps 722 mmHg 63%
    07:00 +31°C° 0 mm 2 mps 722 mmHg 57%
    08:00 +33°C° 0 mm 3 mps 723 mmHg 51%
    09:00 +35°C° 0 mm 3 mps 723 mmHg 45%
    10:00 +36°C° 0 mm 3 mps 723 mmHg 39%
    11:00 +38°C° 0 mm 3 mps 723 mmHg 32%
    12:00 +40°C° 0 mm 3 mps 722 mmHg 26%
    13:00 +40°C° 0 mm 2 mps 721 mmHg 25%
    14:00 +41°C° 0 mm 2 mps 721 mmHg 23%
    15:00 +41°C° 0 mm 2 mps 720 mmHg 22%
    16:00 +39°C° 0.3 mm 2 mps 720 mmHg 26%
    17:00 +37°C° 0.3 mm 3 mps 720 mmHg 31%
    18:00 +35°C° 0.3 mm 4 mps 720 mmHg 35%
    19:00 +34°C° 0.6 mm 3 mps 720 mmHg 39%
    20:00 +32°C° 0.6 mm 2 mps 721 mmHg 42%
    21:00 +31°C° 0.6 mm 1 mps 722 mmHg 45%
    22:00 +31°C° 0.3 mm 1 mps 722 mmHg 47%
    23:00 +31°C° 0.3 mm 1 mps 722 mmHg 48%

    Day after tomorrow, 12 April, Sunday

    Time Temperature Precipitation Wind Pressure Humidity
    00:00 +30°C° 0.3 mm 1 mps 722 mmHg 50%
    01:00 +30°C° 0 mm 1 mps 722 mmHg 50%
    02:00 +30°C° 0 mm 1 mps 722 mmHg 51%
    03:00 +30°C° 0 mm 1 mps 722 mmHg 52%
    04:00 +30°C° 0 mm 2 mps 722 mmHg 54%
    05:00 +30°C° 0 mm 3 mps 722 mmHg 56%
    06:00 +29°C° 0 mm 3 mps 722 mmHg 58%
    07:00 +30°C° 0 mm 3 mps 723 mmHg 55%
    08:00 +32°C° 0 mm 4 mps 723 mmHg 53%
    09:00 +33°C° 0 mm 4 mps 724 mmHg 50%
    10:00 +35°C° 0 mm 4 mps 723 mmHg 43%
    11:00 +37°C° 0 mm 4 mps 723 mmHg 36%
    12:00 +39°C° 0 mm 3 mps 722 mmHg 29%
    13:00 +39°C° 0 mm 3 mps 722 mmHg 27%
    14:00 +40°C° 0 mm 3 mps 721 mmHg 24%
    15:00 +42°C° 0 mm 3 mps 720 mmHg 22%
    16:00 +40°C° 0 mm 2 mps 720 mmHg 23%
    17:00 +39°C° 0 mm 2 mps 720 mmHg 25%
    18:00 +38°C° 0 mm 2 mps 720 mmHg 26%
    19:00 +38°C° 0 mm 2 mps 720 mmHg 28%
    20:00 +37°C° 0 mm 2 mps 721 mmHg 30%
    21:00 +36°C° 0 mm 2 mps 721 mmHg 32%
    22:00 +35°C° 0 mm 3 mps 721 mmHg 34%
    23:00 +35°C° 0 mm 3 mps 721 mmHg 36%

    13 April, Monday

    Time Temperature Precipitation Wind Pressure Humidity
    00:00 +34°C° 0 mm 3 mps 721 mmHg 38%
    01:00 +33°C° 0 mm 3 mps 721 mmHg 43%
    02:00 +33°C° 0 mm 3 mps 721 mmHg 47%
    03:00 +31°C° 0 mm 3 mps 720 mmHg 51%
    04:00 +30°C° 0 mm 3 mps 720 mmHg 54%
    05:00 +30°C° 0 mm 3 mps 721 mmHg 57%
    06:00 +29°C° 0 mm 3 mps 721 mmHg 60%
    07:00 +31°C° 0 mm 3 mps 721 mmHg 56%
    08:00 +33°C° 0 mm 3 mps 722 mmHg 51%
    09:00 +34°C° 0 mm 3 mps 723 mmHg 47%
    10:00 +37°C° 0 mm 3 mps 722 mmHg 40%
    11:00 +39°C° 0 mm 2 mps 722 mmHg 34%
    12:00 +41°C° 0 mm 2 mps 722 mmHg 27%
    13:00 +41°C° 0 mm 2 mps 721 mmHg 25%
    14:00 +41°C° 0 mm 2 mps 720 mmHg 24%
    15:00 +42°C° 0 mm 3 mps 719 mmHg 22%
    16:00 +40°C° 0 mm 2 mps 719 mmHg 22%
    17:00 +40°C° 0 mm 1 mps 719 mmHg 23%
    18:00 +39°C° 0 mm 1 mps 719 mmHg 23%
    19:00 +39°C° 0 mm 1 mps 719 mmHg 25%
    20:00 +37°C° 0 mm 1 mps 720 mmHg 27%
    21:00 +36°C° 0 mm 1 mps 720 mmHg 29%
    22:00 +35°C° 0 mm 1 mps 720 mmHg 30%
    23:00 +35°C° 0 mm 2 mps 720 mmHg 32%

    14 April, Tuesday

    Time Temperature Precipitation Wind Pressure Humidity
    00:00 +34°C° 0 mm 2 mps 720 mmHg 33%
    01:00 +34°C° 0 mm 2 mps 720 mmHg 36%
    02:00 +34°C° 0 mm 3 mps 720 mmHg 39%
    03:00 +33°C° 0 mm 3 mps 720 mmHg 42%
    04:00 +31°C° 0 mm 3 mps 720 mmHg 45%
    05:00 +31°C° 0 mm 3 mps 720 mmHg 48%
    06:00 +30°C° 0 mm 2 mps 721 mmHg 52%
    07:00 +33°C° 0 mm 3 mps 721 mmHg 48%
    08:00 +34°C° 0 mm 3 mps 722 mmHg 44%
    09:00 +36°C° 0 mm 3 mps 722 mmHg 40%
    10:00 +37°C° 0 mm 3 mps 722 mmHg 37%
    11:00 +39°C° 0 mm 3 mps 722 mmHg 33%
    12:00 +40°C° 0 mm 2 mps 721 mmHg 29%
    13:00 +40°C° 0.1 mm 2 mps 721 mmHg 29%
    14:00 +40°C° 0.1 mm 2 mps 720 mmHg 29%
    15:00 +40°C° 0.1 mm 1 mps 720 mmHg 28%
    16:00 +38°C° 0.4 mm 2 mps 719 mmHg 34%
    17:00 +36°C° 0.4 mm 2 mps 719 mmHg 40%
    18:00 +34°C° 0.4 mm 3 mps 719 mmHg 46%
    19:00 +32°C° 0.2 mm 2 mps 720 mmHg 47%
    20:00 +32°C° 0.2 mm 1 mps 720 mmHg 48%
    21:00 +29°C° 0.2 mm 0 mps 721 mmHg 50%
    22:00 +31°C° 0 mm 1 mps 721 mmHg 50%
    23:00 +31°C° 0 mm 1 mps 721 mmHg 50%

    15 April, Wednesday

    Time Temperature Precipitation Wind Pressure Humidity
    00:00 +31°C° 0 mm 1 mps 721 mmHg 50%
    01:00 +30°C° 0.8 mm 1 mps 721 mmHg 54%
    02:00 +29°C° 0.8 mm 1 mps 721 mmHg 58%
    03:00 +29°C° 0.8 mm 1 mps 720 mmHg 62%
    04:00 +28°C° 0.4 mm 1 mps 721 mmHg 62%
    05:00 +28°C° 0.4 mm 2 mps 721 mmHg 63%
    06:00 +28°C° 0.4 mm 2 mps 721 mmHg 64%
    07:00 +29°C° 0.3 mm 2 mps 722 mmHg 59%
    08:00 +30°C° 0.3 mm 3 mps 723 mmHg 55%
    09:00 +33°C° 0.3 mm 4 mps 724 mmHg 50%
    10:00 +34°C° 0.2 mm 4 mps 723 mmHg 47%
    11:00 +35°C° 0.2 mm 4 mps 723 mmHg 43%
    12:00 +36°C° 0.2 mm 4 mps 723 mmHg 40%
    13:00 +36°C° 0 mm 4 mps 722 mmHg 38%
    14:00 +37°C° 0 mm 4 mps 721 mmHg 36%
    15:00 +38°C° 0 mm 4 mps 721 mmHg 34%
    16:00 +37°C° 0 mm 4 mps 721 mmHg 35%
    17:00 +36°C° 0 mm 4 mps 721 mmHg 36%
    18:00 +36°C° 0 mm 4 mps 721 mmHg 37%
    19:00 +35°C° 0 mm 4 mps 721 mmHg 38%
    20:00 +34°C° 0 mm 4 mps 722 mmHg 40%
    21:00 +33°C° 0 mm 4 mps 722 mmHg 42%
    22:00 +33°C° 0 mm 4 mps 722 mmHg 43%
    23:00 +31°C° 0 mm 3 mps 722 mmHg 44%
    Show more